Content
SEND FEEDBACK

Daily
Averages
Monthly
Summary
United States of America

ETHRIDGE - WEST, MONTANA


Home > North America > United States > Montana
Elevation: 3540 feet     Latitude: 48 34N     Longitude: 112 08W

WEATHER
 
SELECT A DAY
Number of Records: 256,051;   Date Range: 1/1/95 - 7/29/14
 
SHARE

PRINT THIS DATA

[ ← Previous Day ]
WEATHER ALMANAC - JANUARY 23, 2013
[ Next Day → ]
[ °C ]   °F
Weather ElementAverageHighLow
Temperature15.6 °F21.9 °F (12:56 pm) (9:56 am)
Dewpoint10.2 °F12.2 °F (5:15 am) (7:00 pm)
Humidity78.5 %100 % (5:15 am)63 % (11:56 am)
Barometer30.07 in30.24 in (5:56 am)29.78 in (9:56 pm)
Wind Speed8.1 mph13.8 mph (1:56 pm)
Weather ElementAverage
Visibility8.7 mi
Wind DirectionESE (115 °)

Weather ElementTotal
Precipitation---
Heating Degree Days54.1 (Base 65)
Averaged from 30 records on January 23, 2013
WEATHER CONDITIONS BREAKOUT
WIND DIRECTION BREAKOUT
WEATHER BY HOUR - JANUARY 23, 2013
[ °C ]   °F
Local TimeTemperatureDewpointHumidityBarometerVisibilityWind DirectionWind SpeedGust SpeedPrecipitationEventsConditions
1:56 AM14.0 °F12.0 °F92 %30.20 in6.0 miNorth (350°)5.8 mphClear
2:56 AM14.0 °F12.0 °F92 %30.22 in7.0 miCalmClear
3:56 AM14.0 °F12.0 °F92 %30.22 in7.0 miCalmClear
4:56 AM12.9 °F10.9 °F92 %30.23 in6.0 miCalmClear
5:15 AM12.2 °F12.2 °F100 %30.09 in7.0 miCalmMostly Cloudy
5:51 AM12.2 °F12.2 °F100 %30.09 in5.0 miESE (110°)3.5 mphOvercast
5:56 AM12.9 °F10.9 °F92 %30.24 in5.0 miEast (90°)3.5 mphOvercast
6:05 AM12.2 °F12.2 °F100 %30.09 in6.0 miEast (100°)3.5 mphOvercast
6:56 AM12.9 °F10.9 °F92 %30.23 in7.0 miESE (120°)5.8 mphOvercast
7:56 AM12.0 °F10.0 °F92 %30.22 in7.0 miESE (110°)9.2 mphOvercast
8:56 AM12.0 °F10.0 °F92 %30.22 in8.0 miESE (120°)10.4 mphOvercast
9:56 AM0.0 °F0.0 °F30.04 inNorth
10:56 AM0.0 °F0.0 °F30.04 in10.0 miNorth
11:27 AM0.0 °F0.0 °F30.03 in10.0 miSE (140°)11.5 mphOvercast
11:56 AM21.0 °F10.0 °F63 %30.18 in10.0 miSSE (150°)10.4 mphOvercast
12:41 PM21.2 °F10.4 °F63 %29.99 in10.0 miSE (140°)12.7 mphScattered Clouds
12:56 PM21.9 °F10.9 °F63 %30.14 in10.0 miSSE (150°)12.7 mphPartly Cloudy
1:39 PM21.2 °F12.2 °F68 %29.97 in10.0 miSE (140°)10.4 mphMostly Cloudy
1:56 PM21.0 °F12.0 °F68 %30.11 in10.0 miSE (130°)13.8 mphOvercast
2:56 PM21.0 °F12.0 °F68 %30.09 in10.0 miSE (140°)12.7 mphMostly Cloudy
3:56 PM21.9 °F12.0 °F66 %30.07 in10.0 miSE (130°)11.5 mphOvercast
4:56 PM19.9 °F12.0 °F71 %30.06 in10.0 miSE (140°)10.4 mphOvercast
5:56 PM19.9 °F12.0 °F71 %30.03 in10.0 miSE (130°)10.4 mphMostly Cloudy
6:21 PM19.4 °F10.4 °F68 %29.85 in10.0 miSE (140°)11.5 mphScattered Clouds
6:56 PM19.0 °F10.9 °F71 %30.01 in10.0 miSSE (160°)8.1 mphClear
7:56 PM19.9 °F12.0 °F71 %29.97 in10.0 miSSE (150°)11.5 mphClear
8:56 PM19.9 °F10.9 °F68 %29.97 in10.0 miSSE (150°)5.8 mphClear
9:56 PM21.0 °F10.9 °F65 %29.78 in10.0 miSSE (150°)12.7 mphClear
10:56 PM19.9 °F10.9 °F68 %29.78 in10.0 miSSE (160°)8.1 mphClear
11:56 PM19.0 °F10.9 °F71 %29.90 in10.0 miSSE (150°)11.5 mphClear
Hourly data recorded from KCTB, located miles away from Ethridge - West, Montana







STORIES FROM OUR PARTNERS